Weather History for Sault Ste Marie, MI

Change the Weather History Date:

Saturday, August 17, 2013

  Actual Average Record
Temperature  
Mean Temperature 68 °F 65 °F  
Max Temperature 81 °F 75 °F 89 °F (1969)
Min Temperature 55 °F 55 °F 33 °F (1981)
Degree Days  
Heating Degree Days 0 2  
Month to date heating degree days 65 34  
Since 1 June heating degree days 261 283  
Since 1 July heating degree days 115 103  
Cooling Degree Days 3 2  
Month to date cooling degree days 5 45  
Year to date cooling degree days 169 158  
Since 1 June cooling degree days 160 153  
Growing Degree Days 18 (Base 50)    
Moisture  
Dew Point 55 °F    
Average Humidity 66    
Maximum Humidity 93    
Minimum Humidity 39    
Precipitation  
Precipitation 0.00 in 0.10 in 1.41 in (2011)
Month to date precipitation 2.14 1.73  
Year to date precipitation 25.39 17.73  
Sea Level Pressure  
Sea Level Pressure 30.19 in    
Wind  
Wind Speed 6 mph (SSE)    
Max Wind Speed 18 mph    
Max Gust Speed 21 mph    
Visibility 10 miles    
Events      
T = Trace of Precipitation, MM = Missing Value Source: NWS Daily Summary

Daily Weather History Graph

Daily Weather History Graph

Search for Another Location

Airport:

Trip Planner

Search our weather history database for the weather conditions in past years. The results will help you decide how hot, cold, wet, or windy it might be!

Date:

Astronomy

Aug. 17, 2013 Rise Set
Actual Time 6:38 AM EDT 8:43 PM EDT
Civil Twilight 6:05 AM EDT 9:15 PM EDT
Nautical Twilight 5:25 AM EDT 9:56 PM EDT
Astronomical Twilight 4:40 AM EDT 10:40 PM EDT
Moon 6:03 PM EDT (8/17) 2:34 AM EDT (8/17)
Length of Visible Light 15h 09m
Length of Day
14h 04m
Waxing Gibbous, 84% of the Moon is Illuminated
Aug 17
Waxing Gibbous
Aug 20
Full
Aug 28
Last Quarter
Sep 5
New
Sep 12
First Quarter

Hourly Weather History & Observations

Time (EDT) Temp. Heat Index Dew Point Humidity Pressure Visibility Wind Dir Wind Speed Gust Speed Precip Events Conditions
12:55 AM 60.1 °F - 53.1 °F 78% 30.19 in 10.0 mi SSE 3.5 mph - N/A   Clear
1:55 AM 57.9 °F - 52.0 °F 81% 30.20 in 10.0 mi Calm Calm - N/A   Clear
2:55 AM 57.9 °F - 54.0 °F 87% 30.19 in 10.0 mi NE 3.5 mph - N/A   Clear
3:55 AM 57.0 °F - 54.0 °F 89% 30.20 in 10.0 mi East 3.5 mph - N/A   Clear
4:55 AM 55.9 °F - 54.0 °F 93% 30.20 in 10.0 mi ENE 3.5 mph - N/A   Clear
5:55 AM 55.0 °F - 53.1 °F 93% 30.21 in 9.0 mi ENE 3.5 mph - N/A   Clear
6:55 AM 55.0 °F - 53.1 °F 93% 30.22 in 8.0 mi East 3.5 mph - N/A   Clear
7:55 AM 55.9 °F - 53.1 °F 90% 30.23 in 10.0 mi East 3.5 mph - N/A   Clear
8:55 AM 60.1 °F - 55.0 °F 83% 30.23 in 10.0 mi East 3.5 mph - N/A   Clear
9:55 AM 64.9 °F - 57.0 °F 75% 30.24 in 10.0 mi East 4.6 mph - N/A   Clear
10:55 AM 69.1 °F - 59.0 °F 70% 30.23 in 10.0 mi SE 5.8 mph - N/A   Clear
11:55 AM 73.0 °F - 61.0 °F 66% 30.22 in 10.0 mi Variable 5.8 mph - N/A   Clear
12:55 PM 78.1 °F - 57.0 °F 48% 30.20 in 10.0 mi SSW 10.4 mph - N/A   Clear
1:55 PM 79.0 °F - 55.0 °F 44% 30.18 in 10.0 mi SSW 12.7 mph - N/A   Clear
2:55 PM 80.1 °F 80.0 °F 54.0 °F 40% 30.17 in 10.0 mi SSW 11.5 mph - N/A   Clear
3:55 PM 80.1 °F 80.1 °F 55.0 °F 42% 30.16 in 10.0 mi SSW 11.5 mph - N/A   Clear
4:55 PM 79.0 °F - 54.0 °F 42% 30.15 in 10.0 mi SW 9.2 mph - N/A   Clear
5:55 PM 78.1 °F - 54.0 °F 43% 30.16 in 10.0 mi SSW 11.5 mph - N/A   Clear
6:55 PM 75.9 °F - 55.0 °F 48% 30.16 in 10.0 mi SSW 11.5 mph - N/A   Clear
7:55 PM 73.0 °F - 55.9 °F 55% 30.16 in 10.0 mi SW 6.9 mph - N/A   Clear
8:55 PM 69.1 °F - 55.9 °F 63% 30.16 in 10.0 mi SSW 5.8 mph - N/A   Clear
9:55 PM 66.0 °F - 54.0 °F 65% 30.16 in 10.0 mi South 4.6 mph - N/A   Clear
10:55 PM 62.1 °F - 55.0 °F 78% 30.16 in 10.0 mi South 4.6 mph - N/A   Clear
11:55 PM 61.0 °F - 54.0 °F 78% 30.17 in 10.0 mi Calm Calm - N/A   Clear